Fort Payne, AL

10:19 AM CST on December 14, 2019 (GMT -0600)
Fort Payne

Weather History for K4A9 - November, 2019

Change the Weather History Date:

Thursday, November 21, 2019

  Actual Average (KRMG) Record (KRMG)
Temperature  
Mean Temperature 52 °F -  
Max Temperature 66 °F 60 °F 75 °F (2007)
Min Temperature 39 °F 37 °F 19 °F (2008)
Degree Days  
Heating Degree Days 12    
Growing Degree Days 2 (Base 50)    
Moisture  
Dew Point 41 °F    
Average Humidity 69    
Maximum Humidity 95    
Minimum Humidity 36    
Precipitation  
Precipitation 0.00 in - - ()
Sea Level Pressure  
Sea Level Pressure 30.19 in    
Wind  
Wind Speed 3 mph ()    
Max Wind Speed 12 mph    
Max Gust Speed 18 mph    
Visibility 10.0 miles    
Events      
Averages and records for this station are not official NWS values.
T = Trace of Precipitation, MM = Missing Value Source: Averaged Metar Reports

Daily Weather History Graph

Daily Weather History Graph

Search for Another Location

Airport or City:

Astronomy

Nov. 21, 2019 Rise Set
Actual Time 6:21 AM CST 4:35 PM CST
Civil Twilight 5:54 AM CST 5:02 PM CST
Nautical Twilight 5:24 AM CST 5:32 PM CST
Astronomical Twilight 4:54 AM CST 6:03 PM CST
Moon 12:35 AM CST (11/21) 1:46 PM CST (11/21)
Length of Visible Light 11h 07m
Length of Day
10h 13m
Waning Crescent, 29% of the Moon is Illuminated
Nov 21
Waning Crescent
Nov 26
New
Dec 4
First Quarter
Dec 11
Full
Dec 18
Last Quarter

Hourly Weather History & Observations

Time (CST) Temp. Windchill Dew Point Humidity Pressure Visibility Wind Dir Wind Speed Gust Speed Precip Events Conditions
12:15 AM 42.4 °F 40.7 °F 38.8 °F 87% 30.23 in 10.0 mi NNE 3.5 mph - N/A   Clear
12:35 AM 42.8 °F 39.3 °F 39.2 °F 87% 30.21 in 10.0 mi NE 5.8 mph - N/A   Clear
12:55 AM 42.1 °F - 38.8 °F 88% 30.22 in 10.0 mi Calm Calm - N/A   Clear
1:15 AM 42.4 °F - 39.0 °F 88% 30.23 in 10.0 mi Calm Calm - N/A   Clear
1:35 AM 41.7 °F 39.8 °F 39.4 °F 91% 30.22 in 10.0 mi North 3.5 mph - N/A   Clear
1:55 AM 42.6 °F 40.9 °F 39.2 °F 88% 30.22 in 10.0 mi NE 3.5 mph - N/A   Clear
2:15 AM 42.3 °F 40.5 °F 39.6 °F 90% 30.21 in 10.0 mi NE 3.5 mph - N/A   Clear
2:35 AM 42.1 °F 40.2 °F 39.4 °F 90% 30.21 in 10.0 mi NNE 3.5 mph - N/A   Clear
2:55 AM 42.3 °F - 39.6 °F 90% 30.22 in 10.0 mi Calm Calm - N/A   Clear
3:15 AM 42.3 °F - 39.0 °F 88% 30.21 in 10.0 mi Calm Calm - N/A   Clear
3:35 AM 40.3 °F - 38.1 °F 92% 30.22 in 10.0 mi Calm Calm - N/A   Clear
3:55 AM 41.5 °F - 39.0 °F 91% 30.22 in 10.0 mi Calm Calm - N/A   Clear
4:15 AM 41.5 °F - 38.8 °F 90% 30.22 in 10.0 mi Calm Calm - N/A   Clear
4:35 AM 39.7 °F - 38.3 °F 95% 30.23 in 10.0 mi Calm Calm - N/A   Clear
4:55 AM 39.4 °F - 37.9 °F 95% 30.23 in 10.0 mi Calm Calm - N/A   Clear
5:35 AM 39.9 °F - 38.3 °F 94% 30.23 in 10.0 mi Calm Calm - N/A   Clear
5:55 AM 40.8 °F - 38.8 °F 93% 30.24 in 10.0 mi Calm Calm - N/A   Clear
6:15 AM 40.5 °F 38.4 °F 38.8 °F 94% 30.24 in 10.0 mi NW 3.5 mph - N/A   Clear
6:35 AM 43.9 °F - 38.8 °F 82% 30.25 in 10.0 mi Calm Calm - N/A   Clear
7:35 AM 46.0 °F - 40.6 °F 81% 30.26 in 10.0 mi Calm Calm - N/A   Clear
7:55 AM 48.2 °F - 41.4 °F 77% 30.26 in 10.0 mi West 4.6 mph - N/A   Clear
8:15 AM 50.9 °F - 41.0 °F 69% 30.26 in 10.0 mi Calm Calm - N/A   Clear
8:35 AM 53.8 °F - 39.0 °F 57% 30.25 in 10.0 mi East 3.5 mph - N/A   Clear
8:55 AM 55.4 °F - 39.6 °F 55% 30.25 in 10.0 mi West 3.5 mph - N/A   Clear
9:15 AM 58.5 °F - 38.1 °F 47% 30.26 in 10.0 mi South 5.8 mph - N/A   Clear
9:35 AM 59.0 °F - 37.6 °F 45% 30.25 in 10.0 mi SSE 8.1 mph - N/A   Clear
9:55 AM 60.8 °F - 37.4 °F 42% 30.24 in 10.0 mi SSW 11.5 mph - N/A   Clear
10:35 AM 61.2 °F - 38.1 °F 42% 30.22 in 10.0 mi South 10.4 mph - N/A   Clear
10:55 AM 61.9 °F - 38.1 °F 41% 30.23 in 10.0 mi South 9.2 mph 18.4 mph N/A   Clear
11:15 AM 61.0 °F - 38.7 °F 44% 30.22 in 10.0 mi SW 10.4 mph - N/A   Clear
11:35 AM 62.6 °F - 38.8 °F 42% 30.20 in 10.0 mi SW 6.9 mph - N/A   Clear
11:55 AM 63.3 °F - 39.0 °F 41% 30.19 in 10.0 mi SSW 9.2 mph - N/A   Clear
12:15 PM 63.9 °F - 39.4 °F 41% 30.19 in 10.0 mi South 9.2 mph - N/A   Clear
12:55 PM 66.2 °F - 40.8 °F 40% 30.16 in 10.0 mi South 8.1 mph - N/A   Clear
1:15 PM 65.8 °F - 37.9 °F 36% 30.16 in 10.0 mi South 6.9 mph - N/A   Clear
1:35 PM 66.0 °F - 38.8 °F 37% 30.16 in 10.0 mi SSW 10.4 mph - N/A   Clear
1:55 PM 65.7 °F - 39.2 °F 38% 30.15 in 10.0 mi SW 9.2 mph - N/A   Clear
2:15 PM 64.8 °F - 38.3 °F 38% 30.15 in 10.0 mi WSW 11.5 mph - N/A   Clear
2:35 PM 64.0 °F - 38.3 °F 39% 30.15 in 10.0 mi SW 6.9 mph - N/A   Clear
2:55 PM 64.2 °F - 38.5 °F 39% 30.14 in 10.0 mi South 4.6 mph - N/A   Scattered Clouds
3:15 PM 63.9 °F - 37.6 °F 38% 30.14 in 10.0 mi SSW 9.2 mph - N/A   Mostly Cloudy
3:35 PM 63.0 °F - 38.5 °F 40% 30.15 in 10.0 mi SSW 6.9 mph - N/A   Overcast
3:55 PM 60.6 °F - 41.2 °F 49% 30.15 in 10.0 mi SSW 3.5 mph - N/A   Overcast
4:35 PM 60.6 °F - 40.3 °F 47% 30.15 in 10.0 mi SW 4.6 mph - N/A   Overcast
4:55 PM 58.6 °F - 41.5 °F 53% 30.15 in 10.0 mi SSE 3.5 mph - N/A   Mostly Cloudy
5:15 PM 56.7 °F - 42.6 °F 59% 30.15 in 10.0 mi West 3.5 mph - N/A   Scattered Clouds
5:35 PM 57.6 °F - 41.9 °F 56% 30.15 in 10.0 mi Calm Calm - N/A   Clear
5:55 PM 54.7 °F - 43.7 °F 66% 30.15 in 10.0 mi Calm Calm - N/A   Scattered Clouds
6:15 PM 55.0 °F - 43.3 °F 65% 30.16 in 10.0 mi West 3.5 mph - N/A   Scattered Clouds
6:35 PM 54.0 °F - 43.7 °F 68% 30.16 in 10.0 mi Calm Calm - N/A   Scattered Clouds
6:55 PM 52.7 °F - 44.4 °F 73% 30.16 in 10.0 mi Calm Calm - N/A   Scattered Clouds
7:15 PM 52.2 °F - 44.2 °F 74% 30.15 in 10.0 mi Calm Calm - N/A   Mostly Cloudy
7:35 PM 51.8 °F - 44.6 °F 76% 30.16 in 10.0 mi Calm Calm - N/A   Overcast
7:55 PM 52.3 °F - 44.6 °F 75% 30.17 in 10.0 mi Calm Calm - N/A   Overcast
8:15 PM 52.3 °F - 44.8 °F 75% 30.16 in 10.0 mi Calm Calm - N/A   Overcast
8:35 PM 51.4 °F - 44.8 °F 78% 30.16 in 10.0 mi Calm Calm - N/A   Mostly Cloudy
8:55 PM 51.3 °F - 44.6 °F 78% 30.15 in 10.0 mi Calm Calm - N/A   Scattered Clouds
9:15 PM 50.5 °F - 44.6 °F 80% 30.14 in 10.0 mi Calm Calm - N/A   Clear
9:35 PM 50.4 °F - 45.0 °F 82% 30.14 in 10.0 mi Calm Calm - N/A   Clear
9:55 PM 49.1 °F - 44.6 °F 84% 30.13 in 10.0 mi Calm Calm - N/A   Clear
10:15 PM 48.6 °F - 44.1 °F 84% 30.13 in 10.0 mi North 3.5 mph - N/A   Clear
10:35 PM 49.1 °F - 44.2 °F 83% 30.12 in 10.0 mi Calm Calm - N/A   Clear
10:55 PM 47.5 °F - 44.2 °F 89% 30.12 in 10.0 mi Calm Calm - N/A   Clear
11:15 PM 48.6 °F - 44.2 °F 85% 30.11 in 10.0 mi Calm Calm - N/A   Clear
11:35 PM 46.8 °F - 43.5 °F 88% 30.11 in 10.0 mi Calm Calm - N/A   Clear
11:55 PM 46.2 °F - 43.2 °F 89% 30.11 in 10.0 mi Calm Calm - N/A   Clear